DW5164 Weather Reports


time (UTC)temp
F
wind
direction
speed
knots
gust
knots
rain 1hr
in
rain 24hr
in
rain mn
in
humidity
%
barometer
mb
20260506185539 62 91 7.8 10.4 0.00 0.11 0.11 92 1008.5
20260506185037 62 82 6.1 11.3 0.00 0.11 0.11 92 1008.5
20260506184537 63 109 3.5 4.3 0.00 0.11 0.11 92 1008.5
20260506184053 63 72 2.6 2.6 0.00 0.11 0.11 91 1008.4
20260506183537 63 90 2.6 4.3 0.00 0.11 0.11 91 1008.3
20260506183036 63 69 1.7 4.3 0.00 0.11 0.11 90 1008.2
20260506182537 63 74 0.9 5.2 0.00 0.11 0.11 90 1008.1
20260506182037 63 63 2.6 7.0 0.00 0.11 0.11 89 1007.9
20260506181540 63 90 2.6 7.0 0.00 0.11 0.11 89 1007.8
20260506181037 64 71 4.3 6.1 0.00 0.11 0.11 89 1007.7
20260506180536 64 95 2.6 7.0 0.00 0.11 0.11 89 1007.7
20260506180036 64 85 4.3 7.8 0.00 0.11 0.11 89 1007.6
20260506175537 64 86 7.0 11.3 0.00 0.11 0.11 89 1007.6
20260506175037 65 80 5.2 13.0 0.00 0.11 0.11 89 1007.6
20260506174538 65 65 6.1 10.4 0.00 0.11 0.11 88 1007.6
20260506174038 65 69 5.2 7.8 0.00 0.11 0.11 87 1007.5
20260506173536 65 91 5.2 10.4 0.00 0.11 0.11 86 1007.4
20260506173037 65 75 5.2 10.4 0.00 0.11 0.11 84 1007.4
20260506172537 65 86 4.3 7.8 0.00 0.11 0.11 82 1007.3
20260506172036 66 80 6.1 8.7 0.00 0.11 0.11 81 1007.3
20260506171536 66 76 4.3 10.4 0.00 0.11 0.11 81 1007.2
20260506171036 66 83 5.2 7.8 0.00 0.11 0.11 80 1007.1
20260506170541 66 81 7.8 11.3 0.00 0.11 0.11 80 1007.1
20260506170039 67 83 7.8 11.3 0.00 0.11 0.11 82 1007.1
20260506165038 67 69 5.2 10.4 0.00 0.11 0.11 85 1007.0
20260506164539 67 75 6.1 10.4 0.00 0.11 0.11 84 1007.0
20260506164036 67 87 5.2 8.7 0.00 0.11 0.11 83 1007.1
20260506163036 67 79 8.7 11.3 0.00 0.11 0.11 82 1007.1
20260506162537 68 85 7.0 13.0 0.00 0.11 0.11 79 1007.1
20260506162036 68 95 7.0 13.0 0.00 0.11 0.11 81 1007.1
20260506161536 68 83 8.7 12.2 0.00 0.11 0.11 80 1007.0
20260506160536 68 86 7.0 10.4 0.00 0.11 0.11 80 1007.1
20260506160036 68 77 6.1 10.4 0.00 0.11 0.11 81 1007.1
20260506155539 69 87 7.0 11.3 0.00 0.11 0.11 82 1007.0
20260506155036 69 76 8.7 12.2 0.00 0.11 0.11 80 1007.0
20260506154536 69 82 5.2 10.4 0.00 0.11 0.11 77 1007.0
20260506154036 69 85 5.2 11.3 0.00 0.11 0.11 80 1007.1
20260506153036 70 38 5.2 7.8 0.00 0.11 0.11 82 1007.0
20260506151536 69 45 7.8 11.3 0.00 0.11 0.11 83 1007.0
20260506151036 68 86 8.7 10.4 0.00 0.11 0.11 83 1007.0
20260506150536 68 67 8.7 11.3 0.00 0.11 0.11 83 1007.1
20260506145037 68 64 7.0 10.4 0.00 0.11 0.11 84 1007.1
20260506144551 68 68 6.1 10.4 0.00 0.11 0.11 84 1007.2
20260506143537 68 76 6.1 8.7 0.00 0.11 0.11 85 1007.4
20260506143036 68 50 5.2 8.7 0.00 0.11 0.11 84 1007.5
20260506142536 69 88 7.0 13.0 0.00 0.11 0.11 83 1007.5
20260506142039 70 99 6.1 13.0 0.00 0.11 0.11 83 1007.4
20260506141035 69 65 8.7 11.3 0.00 0.11 0.11 83 1007.3
20260506140535 69 57 6.1 10.4 0.00 0.11 0.11 85 1007.5
20260506140035 68 78 7.0 8.7 0.00 0.11 0.11 84 1007.7
20260506135038 69 68 5.2 10.4 0.00 0.11 0.11 83 1007.8
20260506134536 69 67 5.2 7.8 0.00 0.11 0.11 83 1007.8
20260506134035 69 67 5.2 10.4 0.00 0.11 0.11 83 1007.9
20260506133536 69 50 7.8 10.4 0.00 0.11 0.11 83 1007.9
20260506133037 69 91 6.1 10.4 0.00 0.11 0.11 84 1008.0
20260506132539 69 68 6.1 11.3 0.00 0.11 0.11 85 1008.1
20260506132036 68 61 5.2 7.0 0.00 0.11 0.11 85 1008.1
20260506131536 68 96 6.1 8.7 0.00 0.11 0.11 83 1008.0
20260506130539 67 66 4.3 6.1 0.00 0.11 0.11 87 1008.2
20260506130035 67 39 5.2 7.8 0.00 0.11 0.11 86 1008.3
20260506125536 67 68 3.5 8.7 0.00 0.11 0.11 87 1008.4
20260506125039 66 64 6.1 8.7 0.00 0.11 0.11 88 1008.4
20260506124537 65 74 6.1 8.7 0.00 0.11 0.11 87 1008.5
20260506124037 66 81 3.5 8.7 0.00 0.11 0.11 87 1008.5
20260506123535 66 77 5.2 10.4 0.00 0.11 0.11 87 1008.5
20260506123054 66 61 5.2 8.7 0.00 0.11 0.11 87 1008.4
20260506122535 66 91 6.1 11.3 0.00 0.11 0.11 88 1008.5
20260506122036 66 92 6.1 10.4 0.00 0.11 0.11 87 1008.5
20260506121535 66 71 6.1 10.4 0.00 0.11 0.11 88 1008.6
20260506121036 65 99 6.1 10.4 0.00 0.11 0.11 88 1008.6
20260506120535 65 90 10.4 13.9 0.00 0.11 0.11 87 1008.5
20260506120035 65 119 6.1 13.0 0.00 0.11 0.11 87 1008.5
20260506115536 66 87 6.1 10.4 0.00 0.11 0.11 88 1008.5
20260506115035 65 54 5.2 11.3 0.00 0.11 0.11 87 1008.5
20260506114535 66 88 9.6 13.9 0.00 0.11 0.11 87 1008.5
20260506114035 66 70 7.8 13.9 0.00 0.11 0.11 86 1008.4
20260506113035 65 99 8.7 14.8 0.00 0.11 0.11 87 1008.3
20260506112035 65 96 11.3 14.8 0.00 0.11 0.11 87 1008.5
20260506111537 65 110 10.4 18.2 0.00 0.11 0.11 88 1008.5
20260506110536 64 102 7.8 13.0 0.00 0.11 0.11 90 1008.6
20260506110052 64 90 6.1 13.0 0.00 0.11 0.11 90 1008.6
20260506105535 63 73 10.4 14.8 0.00 0.11 0.11 90 1008.6
20260506105036 64 92 8.7 13.9 0.00 0.11 0.11 89 1008.8
20260506104535 64 112 7.0 12.2 0.00 0.11 0.11 89 1008.8
20260506104035 64 88 7.8 13.0 0.00 0.11 0.11 89 1008.8
20260506103536 64 94 8.7 13.9 0.00 0.11 0.11 91 1008.8
20260506103036 63 90 11.3 13.9 0.00 0.11 0.11 91 1008.9
20260506102536 63 84 7.8 11.3 0.00 0.11 0.11 92 1008.9
20260506102035 63 89 8.7 12.2 0.00 0.11 0.11 91 1009.0
20260506101535 63 97 7.8 13.0 0.00 0.11 0.11 91 1009.0
20260506100537 63 80 9.6 13.9 0.00 0.11 0.11 92 1008.9
20260506100035 63 80 9.6 13.0 0.00 0.11 0.11 92 1009.0
20260506095535 62 66 8.7 12.2 0.00 0.11 0.11 92 1008.9
20260506095035 62 68 8.7 12.2 0.00 0.11 0.11 93 1008.9
20260506094035 62 65 6.1 8.7 0.00 0.13 0.11 94 1009.2
20260506093535 62 83 7.0 10.4 0.00 0.13 0.11 94 1009.2
20260506093035 61 71 6.1 10.4 0.00 0.13 0.11 94 1009.1
20260506092535 61 86 7.8 13.0 0.00 0.14 0.11 94 1009.1
20260506092035 61 78 5.2 10.4 0.00 0.14 0.11 94 1009.2
20260506091035 61 71 5.2 12.2 0.00 0.15 0.11 94 1009.2
20260506090535 61 60 7.0 10.4 0.00 0.15 0.11 95 1009.2
20260506090035 61 75 6.1 10.4 0.00 0.16 0.11 95 1009.2
20260506085535 61 63 4.3 7.0 0.00 0.17 0.11 95 1009.0
20260506085035 61 72 5.2 7.0 0.00 0.17 0.11 95 1009.2
20260506084542 61 91 5.2 10.4 0.00 0.17 0.11 95 1009.2
20260506084035 61 75 7.0 11.3 0.00 0.18 0.11 95 1009.2
20260506083537 61 69 6.1 8.7 0.00 0.19 0.11 96 1009.2
20260506083035 61 60 4.3 7.8 0.00 0.20 0.11 96 1009.2
20260506082035 60 92 5.2 7.0 0.00 0.20 0.11 96 1009.1
20260506081534 60 91 5.2 10.4 0.00 0.21 0.11 97 1009.1
20260506081035 60 86 4.3 10.4 0.00 0.22 0.11 96 1009.2
20260506080535 60 94 5.2 7.8 0.00 0.22 0.11 97 1009.1
20260506073034 60 109 7.0 10.4 0.00 0.25 0.11 98 1009.1
20260506072035 60 76 4.3 6.1 0.01 0.26 0.11 99 1009.1
20260506071538 60 110 4.3 7.0 0.01 0.26 0.11 99 1009.1
20260506071035 59 80 2.6 8.7 0.01 0.26 0.11 99 1009.1
20260506062034 58 78 5.2 8.7 0.02 0.26 0.10 99 1009.3
20260506061035 58 53 2.6 4.3 0.02 0.26 0.10 99 1009.6
20260506060535 58 42 2.6 6.1 0.03 0.26 0.10 99 1009.4
20260506051034 57 110 4.3 7.0 0.05 0.24 0.08 98 1009.8
20260506050536 57 99 6.1 10.4 0.04 0.23 0.07 98 1009.8
20260506044534 57 100 5.2 7.0 0.04 0.20 0.05 98 1009.7
20260506043533 57 118 4.3 11.3 0.04 0.20 0.04 98 1009.7
20260506043034 57 104 6.1 10.4 0.03 0.19 0.03 98 1009.6
20260506042535 57 100 6.1 10.4 0.03 0.19 0.03 98 1009.4
20260506042034 57 103 7.8 13.9 0.03 0.19 0.03 98 1009.4
20260506041534 57 105 7.8 13.0 0.03 0.19 0.03 98 1009.5
20260506041034 57 112 7.0 13.0 0.03 0.19 0.03 98 1009.5
20260506040534 57 103 7.8 13.0 0.03 0.19 0.03 98 1009.4
20260506040035 56 102 7.8 10.4 0.03 0.19 0.03 98 1009.4
20260506035034 56 103 7.0 13.0 0.02 0.17 0.02 98 1009.4
20260506034534 56 88 6.1 12.2 0.01 0.17 0.01 98 1009.5
20260506034033 56 89 5.2 10.4 0.00 0.16 0.00 98 1009.6
20260506033537 56 100 4.3 7.8 0.00 0.16 0.00 98 1009.6
20260506033035 56 84 5.2 8.7 0.00 0.16 0.00 98 1009.5
20260506032534 56 80 6.1 7.0 0.00 0.16 0.00 98 1009.4
20260506031533 56 96 4.3 6.1 0.00 0.16 0.00 98 1009.5
20260506031034 56 73 5.2 6.1 0.00 0.16 0.00 98 1009.5
20260506030034 55 91 2.6 6.1 0.00 0.16 0.00 98 1009.8
20260506025535 55 58 1.7 4.3 0.00 0.16 0.00 98 1009.8
20260506025033 55 61 3.5 6.1 0.00 0.16 0.00 98 1009.8
20260506024533 55 63 2.6 6.1 0.00 0.16 0.00 98 1009.9
20260506024034 55 80 2.6 2.6 0.00 0.16 0.00 98 1010.1
20260506023035 55 72 1.7 2.6 0.00 0.16 0.00 98 1010.3
20260506022534 55 69 1.7 2.6 0.00 0.16 0.00 98 1010.2
20260506021534 55 161 0.9 1.7 0.00 0.16 0.00 98 1010.5
20260506021033 55 161 0.0 0.9 0.00 0.16 0.00 98 1010.6
20260506020534 55 161 0.0 0.0 0.00 0.16 0.00 98 1010.6
20260506020034 55 161 0.0 0.0 0.00 0.16 0.00 98 1010.6
20260506015533 55 161 0.0 0.0 0.00 0.16 0.00 98 1010.4
20260506015033 55 161 0.0 0.0 0.00 0.16 0.00 98 1010.4
20260506014533 55 161 0.0 1.7 0.00 0.16 0.00 98 1010.4
20260506013533 55 162 0.0 0.9 0.00 0.16 0.00 98 1010.6
20260506013034 55 162 0.0 0.9 0.00 0.16 0.00 97 1010.7
20260506012533 55 162 0.9 1.7 0.00 0.16 0.00 97 1010.7
20260506012033 55 163 0.9 2.6 0.00 0.16 0.00 97 1010.7
20260506011533 55 355 0.0 0.0 0.00 0.16 0.00 97 1010.8
20260506011035 55 355 0.0 0.0 0.00 0.16 0.00 97 1010.9
20260506005533 55 355 0.0 0.0 0.00 0.16 0.00 97 1010.8
20260506005033 55 355 0.0 0.0 0.00 0.16 0.00 97 1010.8
20260506004534 55 355 0.0 0.0 0.00 0.16 0.00 97 1010.9
20260506004048 55 355 0.9 1.7 0.00 0.16 0.00 97 1010.9
20260506003533 55 220 0.0 1.7 0.00 0.16 0.00 97 1011.1
20260506003033 55 220 0.9 1.7 0.00 0.16 0.00 97 1011.2
20260506002033 55 257 0.9 1.7 0.00 0.16 0.00 97 1011.1
20260506001533 55 256 1.7 1.7 0.00 0.16 0.00 97 1011.3
20260506001034 55 216 0.0 0.0 0.00 0.16 0.00 97 1011.2
20260506000533 55 216 1.7 2.6 0.00 0.16 0.00 97 1011.3
20260506000033 55 84 0.0 0.0 0.00 0.16 0.00 97 1011.3
20260505235033 55 84 0.9 1.7 0.00 0.16 0.00 97 1011.3
20260505234033 55 183 0.9 2.6 0.00 0.16 0.00 97 1011.4
20260505233033 55 113 2.6 2.6 0.00 0.16 0.00 97 1011.5
20260505232533 55 104 1.7 2.6 0.00 0.16 0.00 97 1011.6
20260505232032 55 86 2.6 4.3 0.00 0.16 0.00 97 1011.6
20260505231532 55 93 1.7 4.3 0.00 0.16 0.00 97 1011.6
20260505230535 55 71 0.9 2.6 0.00 0.16 0.00 97 1011.5
20260505230036 55 71 1.7 2.6 0.00 0.16 0.00 97 1011.5
20260505225033 55 73 1.7 2.6 0.00 0.16 0.00 97 1011.6
20260505224033 55 72 1.7 2.6 0.00 0.16 0.00 97 1011.5
20260505223533 55 63 2.6 4.3 0.00 0.16 0.00 97 1011.6
20260505222533 55 91 1.7 2.6 0.00 0.16 0.00 97 1011.6
20260505222033 55 84 2.6 5.2 0.00 0.16 0.00 96 1011.6
20260505221536 55 88 2.6 4.3 0.00 0.16 0.00 96 1011.5
20260505221033 55 90 2.6 4.3 0.00 0.16 0.00 96 1011.6
20260505220534 55 81 3.5 5.2 0.00 0.16 0.00 96 1011.6
20260505215033 55 93 3.5 4.3 0.00 0.16 0.16 96 1011.7
20260505214533 55 98 1.7 2.6 0.00 0.16 0.16 96 1011.8
20260505214032 55 81 1.7 4.3 0.00 0.16 0.16 96 1011.9
20260505213535 55 86 2.6 4.3 0.00 0.16 0.16 96 1012.0
20260505213034 55 89 2.6 5.2 0.00 0.16 0.16 96 1012.1
20260505212533 55 86 2.6 5.2 0.00 0.16 0.16 95 1012.2
20260505212032 55 97 2.6 5.2 0.00 0.16 0.16 95 1012.2
20260505211036 56 79 2.6 6.1 0.00 0.16 0.16 95 1012.3
20260505210533 56 77 2.6 5.2 0.00 0.16 0.16 95 1012.3
20260505210040 56 78 2.6 4.3 0.00 0.16 0.16 95 1012.3
20260505205534 56 62 4.3 5.2 0.00 0.16 0.16 95 1012.3
20260505204548 56 86 3.5 5.2 0.00 0.16 0.16 94 1012.3
20260505204032 56 79 4.3 6.1 0.00 0.16 0.16 94 1012.3
20260505203534 56 83 2.6 6.1 0.00 0.16 0.16 94 1012.4
20260505203032 56 69 4.3 6.1 0.00 0.16 0.16 94 1012.3
20260505202533 56 71 1.7 7.0 0.00 0.16 0.16 94 1012.3
20260505201533 57 78 2.6 4.3 0.00 0.16 0.16 93 1012.3
20260505201033 57 64 2.6 5.2 0.00 0.16 0.16 93 1012.3
20260505200536 57 64 2.6 5.2 0.00 0.16 0.16 93 1012.3
20260505200048 57 78 2.6 6.1 0.00 0.16 0.16 92 1012.2
20260505195532 57 86 2.6 4.3 0.00 0.16 0.16 92 1012.2
20260505195034 57 82 2.6 6.1 0.00 0.16 0.16 92 1012.2
20260505194533 58 70 2.6 7.0 0.00 0.16 0.16 91 1012.1
20260505194033 58 76 2.6 4.3 0.00 0.16 0.16 91 1012.1
20260505193548 58 70 3.5 6.1 0.00 0.16 0.16 91 1012.1
20260505193032 58 80 3.5 7.8 0.00 0.16 0.16 91 1012.0
20260505192532 58 71 3.5 6.1 0.00 0.16 0.16 90 1012.0
20260505192035 58 69 3.5 5.2 0.00 0.16 0.16 90 1012.0
20260505191533 59 64 3.5 6.1 0.00 0.16 0.16 90 1012.0
20260505191032 59 77 4.3 7.0 0.00 0.16 0.16 90 1012.0
20260505190533 59 67 4.3 7.0 0.00 0.16 0.16 90 1012.0
20260505190033 59 78 1.7 6.1 0.00 0.16 0.16 90 1012.0